Juan De La Cosa — ECJE — position and weather

sailwx.info

Track history (hours):
 
Tides and Currents Weather Stations Pressure Air Temp Water Temp Dewpoint Dewpoint Depression Visibility Wind Speed Wind Dir Waves Ship Positions

Juan De La Cosa

Last reported at 2014-Sep-27 00:33 UTC. Time now 2014-Oct-02 08:36 UTC.
Position N 45°35' W 005°55'.

Length 75 m; draft 4.5 m.

Type: Medical transport. MMSI: 224612000.

Date/timePositionNaut miles runAvg speedWind from/ knotsBaromVisibWave heightAir tempDewpointWater temp
2014-Sep-27 00:33N 45°35' W 005°55'385 9.6
2014-Sep-25 08:23N 50°55' W 011°17'48 4.7
2014-Sep-24 22:07N 51°30' W 010°24'5 7.8
2014-Sep-24 21:30N 51°31' W 010°16'7 7.4
2014-Sep-24 20:32N 51°33' W 010°05'6 6.0
2014-Sep-24 19:32N 51°36' W 009°57'1 0.6
2014-Sep-24 18:33N 51°35' W 009°57'1212.2
2014-Sep-24 17:33N 51°31' W 010°15'1614.3
2014-Sep-24 16:25N 51°31' W 010°41'3 0.3
2014-Sep-24 05:21N 51°34' W 010°40'40 2.5
2014-Sep-23 13:31N 52°03' W 011°24'5 5.6
2014-Sep-23 12:33N 52°09' W 011°27'57 5.0
2014-Sep-23 01:12N 53°02' W 011°57'4 5.7
2014-Sep-23 00:25N 53°07' W 011°59'  
2014-Sep-18 12:28N 51°31' W 010°15'7 7.7
2014-Sep-18 11:33N 51°33' W 010°04'6 6.3
2014-Sep-18 10:34N 51°36' W 009°56'0 0.4
2014-Sep-18 09:34N 51°35' W 009°56'0 0.3
2014-Sep-18 08:33N 51°35' W 009°56'3 2.7
2014-Sep-18 07:33N 51°33' W 009°59'7 6.7
2014-Sep-18 06:33N 51°32' W 010°09'8 8.2
2014-Sep-18 05:33N 51°32' W 010°22'28 9.1
2014-Sep-18 02:32N 51°49' W 010°57'17 8.6
2014-Sep-18 00:31N 52°00' W 011°19'8 8.5
2014-Sep-17 23:33N 52°06' W 011°29'9 8.5
2014-Sep-17 22:31N 52°11' W 011°40'  
Track history (hours):
 
Tides and Currents Weather Stations Pressure Air Temp Water Temp Dewpoint Dewpoint Depression Visibility Wind Speed Wind Dir Waves Ship Positions

Juan De La Cosa

Last reported at 2014-Sep-27 00:33 UTC. Time now 2014-Oct-02 08:36 UTC.
Position N 45°35' W 005°55'.

Length 75 m; draft 4.5 m.

Type: Medical transport. MMSI: 224612000.

Date/timePositionNaut miles runAvg speedWind from/ knotsBaromVisibWave heightAir tempDewpointWater temp
2014-Sep-27 00:33N 45°35' W 005°55'385 9.6
2014-Sep-25 08:23N 50°55' W 011°17'48 4.7
2014-Sep-24 22:07N 51°30' W 010°24'5 7.8
2014-Sep-24 21:30N 51°31' W 010°16'7 7.4
2014-Sep-24 20:32N 51°33' W 010°05'6 6.0
2014-Sep-24 19:32N 51°36' W 009°57'1 0.6
2014-Sep-24 18:33N 51°35' W 009°57'1212.2
2014-Sep-24 17:33N 51°31' W 010°15'1614.3
2014-Sep-24 16:25N 51°31' W 010°41'3 0.3
2014-Sep-24 05:21N 51°34' W 010°40'40 2.5
2014-Sep-23 13:31N 52°03' W 011°24'5 5.6
2014-Sep-23 12:33N 52°09' W 011°27'57 5.0
2014-Sep-23 01:12N 53°02' W 011°57'4 5.7
2014-Sep-23 00:25N 53°07' W 011°59'  
2014-Sep-18 12:28N 51°31' W 010°15'7 7.7
2014-Sep-18 11:33N 51°33' W 010°04'6 6.3
2014-Sep-18 10:34N 51°36' W 009°56'0 0.4
2014-Sep-18 09:34N 51°35' W 009°56'0 0.3
2014-Sep-18 08:33N 51°35' W 009°56'3 2.7
2014-Sep-18 07:33N 51°33' W 009°59'7 6.7
2014-Sep-18 06:33N 51°32' W 010°09'8 8.2
2014-Sep-18 05:33N 51°32' W 010°22'28 9.1
2014-Sep-18 02:32N 51°49' W 010°57'17 8.6
2014-Sep-18 00:31N 52°00' W 011°19'8 8.5
2014-Sep-17 23:33N 52°06' W 011°29'9 8.5
2014-Sep-17 22:31N 52°11' W 011°40'  

Dump ship's entire track history